TimeEST,TemperatureF,Dew PointF,Humidity,Sea Level PressureIn,VisibilityMPH,Wind Direction,Wind SpeedMPH,Gust SpeedMPH,PrecipitationIn,Events,Conditions,WindDirDegrees,DateUTC
12:35 AM,33.8,26.6,75,29.85,10.0,West,15.0,21.9,N/A,,Overcast,280,2013-01-01 05:35:00
12:54 AM,34.0,26.1,73,29.86,10.0,West,13.8,26.5,N/A,,Overcast,280,2013-01-01 05:54:00
1:54 AM,33.1,24.1,70,29.88,10.0,NW,18.4,27.6,N/A,,Overcast,320,2013-01-01 06:54:00
2:01 AM,33.8,23.0,65,29.86,10.0,NW,17.3,27.6,N/A,,Overcast,310,2013-01-01 07:01:00
2:18 AM,32.0,21.2,64,29.88,10.0,WNW,16.1,-,N/A,,Overcast,300,2013-01-01 07:18:00
2:50 AM,32.0,21.2,64,29.89,10.0,WNW,13.8,19.6,N/A,,Overcast,300,2013-01-01 07:50:00
2:54 AM,32.0,21.9,66,29.91,10.0,NW,11.5,19.6,N/A,,Overcast,310,2013-01-01 07:54:00
3:54 AM,30.9,19.9,64,29.92,10.0,NW,13.8,24.2,N/A,,Overcast,310,2013-01-01 08:54:00
4:54 AM,30.0,17.1,59,29.93,10.0,WNW,16.1,20.7,N/A,,Overcast,300,2013-01-01 09:54:00
5:54 AM,28.9,16.0,58,29.94,10.0,WNW,10.4,-,N/A,,Overcast,300,2013-01-01 10:54:00
6:54 AM,28.9,16.0,58,29.96,10.0,WNW,10.4,-,N/A,,Overcast,290,2013-01-01 11:54:00
7:54 AM,28.0,14.0,56,29.97,10.0,NW,10.4,-,N/A,,Overcast,320,2013-01-01 12:54:00
8:54 AM,26.1,19.9,78,30.00,7.0,North,10.4,-,0.00,Snow,Light Snow,350,2013-01-01 13:54:00
9:07 AM,26.6,19.4,74,29.98,2.0,North,13.8,-,0.00,Snow,Light Snow,360,2013-01-01 14:07:00
9:19 AM,24.8,19.4,80,29.98,1.0,NNW,11.5,-,0.00,Snow,Light Snow,340,2013-01-01 14:19:00
9:54 AM,24.1,18.0,77,30.02,1.2,North,17.3,-,0.01,Snow,Light Snow,350,2013-01-01 14:54:00
10:54 AM,23.0,17.1,78,30.04,1.0,NNW,11.5,-,0.00,Snow,Light Snow,330,2013-01-01 15:54:00
11:06 AM,23.0,17.6,80,30.01,1.0,NW,10.4,-,0.00,Snow,Light Snow,320,2013-01-01 16:06:00
11:11 AM,23.0,17.6,80,30.01,2.0,NNW,11.5,19.6,0.00,Snow,Light Snow,330,2013-01-01 16:11:00
11:18 AM,23.0,15.8,74,30.01,2.0,NW,10.4,-,0.00,Snow,Light Snow,310,2013-01-01 16:18:00
11:28 AM,23.0,15.8,74,30.00,7.0,NNW,15.0,21.9,0.00,Snow,Light Snow,330,2013-01-01 16:28:00
11:54 AM,23.0,15.1,72,30.04,7.0,NNW,13.8,21.9,0.00,Snow,Light Snow,330,2013-01-01 16:54:00
12:54 PM,24.1,12.9,62,30.02,10.0,NNW,15.0,-,0.00,,Scattered Clouds,330,2013-01-01 17:54:00
1:54 PM,23.0,12.0,63,29.99,10.0,NW,16.1,20.7,N/A,,Mostly Cloudy,320,2013-01-01 18:54:00
2:54 PM,21.0,10.9,65,30.01,10.0,NW,10.4,-,0.00,,Mostly Cloudy,320,2013-01-01 19:54:00
3:54 PM,21.9,10.0,60,30.03,10.0,WNW,11.5,-,0.00,,Scattered Clouds,300,2013-01-01 20:54:00
4:54 PM,19.0,10.0,68,30.04,9.0,WNW,8.1,-,0.00,Snow,Light Snow,300,2013-01-01 21:54:00
5:54 PM,18.0,9.0,68,30.06,10.0,WNW,3.5,-,0.00,,Partly Cloudy,290,2013-01-01 22:54:00
6:54 PM,14.0,9.0,80,30.07,10.0,Calm,Calm,-,N/A,,Partly Cloudy,0,2013-01-01 23:54:00
7:54 PM,10.9,7.0,84,30.05,10.0,WSW,4.6,-,N/A,,Scattered Clouds,250,2013-01-02 00:54:00
8:01 PM,12.2,8.6,85,30.02,10.0,SW,4.6,-,N/A,,Mostly Cloudy,230,2013-01-02 01:01:00
8:44 PM,10.4,6.8,85,30.02,10.0,SW,6.9,-,N/A,,Mostly Cloudy,230,2013-01-02 01:44:00
8:54 PM,9.0,6.1,88,30.05,10.0,SW,8.1,-,N/A,,Mostly Cloudy,230,2013-01-02 01:54:00
9:54 PM,9.0,6.1,88,30.06,10.0,SW,8.1,-,N/A,,Mostly Cloudy,230,2013-01-02 02:54:00
10:54 PM,9.0,6.1,88,30.05,10.0,SW,8.1,-,N/A,,Partly Cloudy,220,2013-01-02 03:54:00
11:54 PM,7.0,3.9,87,30.06,10.0,SW,5.8,-,N/A,,Partly Cloudy,230,2013-01-02 04:54:00